This demonstration page uses our WeatherBlox Daily Observations layout. Learn more.

Left ArrowRight Arrow

Hourly Observations for October 29, 2015

Temp ( °F °C ) Dew Point ( °F °C ) Humidity (%) Winds ( mph kmh ) Pressure ( in mb ) Visibility ( mi km ) Precip ( " mm )
12:53 am 00:53 Clear 56 13.3 50 10 81 81 N 5 7 30.03 1017 10 16 0.00 0.00
1:53 am 01:53 Clear 53 11.7 49 9.4 86 86 Calm 30.03 1017 10 16 0.00 0.00
2:53 am 02:53 Clear 52 11.1 48 8.9 86 86 NNW 5 7 30.04 1017 10 16 0.00 0.00
3:53 am 03:53 Clear 56 13.3 48 8.9 75 75 NW 9 15 30.02 1017 10 16 0.00 0.00
4:53 am 04:53 Clear 57 13.9 47 8.3 69 69 NNW 9 15 30.02 1017 10 16 0.00 0.00
5:53 am 05:53 Clear 55 12.8 46 7.8 72 72 NNW 6 9 30.04 1017 10 16 0.00 0.00
6:53 am 06:53 Clear 56 13.3 45 7.2 67 67 NW 8 13 30.05 1018 10 16 0.00 0.00
7:53 am 07:53 Sunny 56 13.3 45 7.2 67 67 NW 9 15 30.06 1018 10 16 0.00 0.00
8:53 am 08:53 Sunny 59 15 45 7.2 60 60 NW 8 13 30.06 1018 10 16 0.00 0.00
9:53 am 09:53 Sunny 64 17.8 46 7.8 52 52 NW 8 13 30.07 1018 10 16 0.00 0.00
10:53 am 10:53 Sunny 69 20.6 42 5.6 38 38 N 12 19 30.06 1018 10 16 0.00 0.00
11:53 am 11:53 Sunny 73 23 43 6 33 33 N 8 13 30.03 1017 10 16 0.00 0.00
12:53 pm 12:53 Sunny 75 23.9 39 3.9 27 27 N 17 28 30.02 1017 10 16 0.00 0.00
1:53 pm 13:53 Sunny 75 24 39 4 27 27 N 16 26 N/A 2 3 0.00 0.00
2:53 pm 14:53 Sunny 78 25.6 38 3.3 24 24 N 17 28 29.99 1016 10 16 0.00 0.00
3:53 pm 15:53 Sunny 78 25.6 39 3.9 25 25 NNE 16 26 29.99 1016 10 16 0.00 0.00
4:53 pm 16:53 Sunny 77 25 41 5 28 28 NE 13 20 29.98 1015 10 16 0.00 0.00
5:53 pm 17:53 Sunny 75 23.9 42 5.6 31 31 N 5 7 29.97 1015 10 16 0.00 0.00
6:53 pm 18:53 Clear 69 20.6 42 5.6 38 38 NNW 5 7 29.98 1015 10 16 0.00 0.00
7:53 pm 19:53 Clear 66 18.9 43 6.1 43 43 NW 5 7 30.00 1016 10 16 0.00 0.00
8:53 pm 20:53 Clear 63 17.2 43 6.1 48 48 NW 7 11 30.01 1016 10 16 0.00 0.00
9:53 pm 21:53 Clear 63 17.2 40 4.4 43 43 NNW 8 13 30.02 1017 10 16 0.00 0.00
10:53 pm 22:53 Clear 57 13.9 40 4.4 53 53 ESE 6 9 30.03 1017 10 16 0.00 0.00
11:53 pm 23:53 Clear 59 15 40 4.4 49 49 N 3 6 30.04 1017 10 16 0.00 0.00

Powered by AerisWeather